Total_Precipitation_Accumulation
0.03 0.09 0.21 0.21 0.21 0.19 0.18 0.18 0.18 0.19 0.19 0.20 0.18 0.19 0.22 0.21 0.18 0.14 0.15 0.18 0.21 0.27 0.32 0.33 0.37 0.41 0.39 0.37 0.32 0.17 0.09 0.08 0.06 0.05 0.06 0.08 0.11 0.11 0.10 0.10 0.11 0.12 0.15
0.04 0.08 0.18 0.20 0.22 0.21 0.21 0.20 0.17 0.16 0.19 0.21 0.22 0.23 0.27 0.23 0.18 0.17 0.18 0.19 0.23 0.30 0.33 0.31 0.28 0.25 0.24 0.23 0.17 0.08 0.04 0.02 0.01 0.01 0.01 0.03 0.06 0.08 0.09 0.10 0.10 0.12 0.15
0.04 0.09 0.18 0.22 0.25 0.24 0.21 0.19 0.15 0.14 0.17 0.21 0.25 0.28 0.28 0.24 0.22 0.22 0.23 0.23 0.27 0.30 0.29 0.22 0.18 0.12 0.09 0.08 0.06 0.04 0.02 0.01 0.01 0.00 0.01 0.03 0.04 0.08 0.10 0.10 0.10 0.12 0.12
0.04 0.09 0.18 0.24 0.28 0.28 0.21 0.18 0.17 0.17 0.20 0.23 0.25 0.30 0.27 0.24 0.24 0.22 0.23 0.24 0.24 0.21 0.18 0.12 0.09 0.05 0.04 0.04 0.03 0.02 0.01 0.00 0.00 0.00 0.01 0.02 0.03 0.08 0.11 0.12 0.12 0.11 0.10
0.06 0.11 0.20 0.28 0.32 0.33 0.29 0.24 0.22 0.21 0.24 0.25 0.27 0.29 0.28 0.26 0.24 0.22 0.22 0.20 0.17 0.11 0.09 0.09 0.05 0.04 0.03 0.02 0.02 0.01 0.01 0.01 0.00 0.01 0.02 0.03 0.05 0.11 0.12 0.12 0.13 0.12 0.14
0.12 0.17 0.23 0.27 0.35 0.38 0.37 0.35 0.32 0.29 0.29 0.30 0.31 0.31 0.31 0.29 0.27 0.28 0.25 0.15 0.10 0.07 0.05 0.05 0.04 0.03 0.02 0.01 0.01 0.01 0.01 0.01 0.00 0.00 0.02 0.04 0.07 0.15 0.15 0.15 0.16 0.17 0.20
0.21 0.26 0.30 0.31 0.38 0.40 0.39 0.39 0.39 0.39 0.38 0.38 0.36 0.36 0.38 0.35 0.31 0.29 0.26 0.14 0.08 0.08 0.07 0.06 0.04 0.03 0.02 0.01 0.01 0.02 0.01 0.01 0.00 0.01 0.02 0.04 0.08 0.15 0.15 0.14 0.16 0.18 0.20
0.33 0.39 0.41 0.42 0.46 0.44 0.44 0.43 0.42 0.47 0.48 0.48 0.46 0.45 0.46 0.44 0.38 0.30 0.24 0.14 0.10 0.08 0.08 0.08 0.06 0.03 0.02 0.02 0.02 0.01 0.01 0.00 0.00 0.01 0.02 0.03 0.05 0.11 0.12 0.10 0.10 0.11 0.12
0.56 0.61 0.63 0.58 0.52 0.49 0.48 0.45 0.44 0.47 0.52 0.54 0.51 0.48 0.48 0.46 0.40 0.30 0.22 0.15 0.12 0.11 0.09 0.08 0.08 0.05 0.04 0.03 0.02 0.02 0.01 0.01 0.00 0.01 0.01 0.02 0.06 0.11 0.09 0.08 0.08 0.08 0.08
0.85 0.83 0.83 0.79 0.72 0.64 0.55 0.48 0.46 0.47 0.50 0.53 0.48 0.41 0.35 0.35 0.36 0.31 0.20 0.16 0.13 0.13 0.12 0.09 0.08 0.07 0.05 0.04 0.03 0.02 0.01 0.01 0.00 0.01 0.01 0.02 0.06 0.09 0.08 0.08 0.08 0.07 0.08
1.15 1.04 0.95 0.89 0.86 0.77 0.70 0.56 0.49 0.49 0.52 0.49 0.42 0.36 0.33 0.35 0.33 0.28 0.17 0.13 0.12 0.12 0.13 0.12 0.10 0.08 0.05 0.03 0.02 0.02 0.01 0.01 0.00 0.00 0.01 0.02 0.05 0.06 0.06 0.06 0.07 0.07 0.08
1.26 1.15 1.07 0.97 0.91 0.86 0.77 0.66 0.62 0.54 0.50 0.47 0.36 0.32 0.32 0.32 0.30 0.23 0.18 0.12 0.12 0.12 0.12 0.12 0.12 0.09 0.05 0.02 0.02 0.02 0.02 0.01 0.01 0.01 0.01 0.01 0.03 0.04 0.04 0.05 0.06 0.06 0.07
1.45 1.37 1.23 1.11 1.05 0.98 0.89 0.73 0.67 0.60 0.54 0.51 0.40 0.34 0.32 0.33 0.33 0.29 0.25 0.19 0.17 0.13 0.11 0.10 0.10 0.06 0.04 0.03 0.02 0.02 0.01 0.02 0.02 0.01 0.01 0.01 0.02 0.02 0.04 0.05 0.06 0.06 0.06
1.54 1.46 1.40 1.31 1.17 1.09 0.95 0.83 0.73 0.65 0.58 0.52 0.46 0.42 0.39 0.34 0.28 0.26 0.23 0.18 0.18 0.15 0.13 0.10 0.08 0.06 0.05 0.04 0.04 0.03 0.02 0.02 0.02 0.02 0.01 0.01 0.01 0.02 0.03 0.04 0.05 0.06 0.07
1.41 1.44 1.36 1.31 1.21 1.12 1.02 0.89 0.74 0.70 0.62 0.57 0.55 0.51 0.44 0.35 0.28 0.26 0.27 0.25 0.22 0.19 0.16 0.12 0.09 0.07 0.07 0.06 0.05 0.04 0.03 0.02 0.02 0.02 0.01 0.01 0.01 0.01 0.02 0.04 0.06 0.08 0.11
1.32 1.37 1.38 1.32 1.21 1.15 1.04 0.90 0.77 0.71 0.69 0.70 0.63 0.54 0.49 0.41 0.34 0.33 0.30 0.27 0.23 0.20 0.18 0.15 0.12 0.11 0.09 0.08 0.07 0.05 0.05 0.04 0.03 0.03 0.03 0.03 0.03 0.02 0.01 0.03 0.06 0.12 0.19
1.30 1.39 1.37 1.35 1.32 1.15 1.05 0.96 0.86 0.80 0.74 0.72 0.68 0.61 0.57 0.47 0.41 0.39 0.35 0.29 0.24 0.24 0.24 0.22 0.20 0.18 0.13 0.10 0.07 0.06 0.06 0.05 0.04 0.04 0.04 0.03 0.03 0.03 0.02 0.02 0.05 0.12 0.20
1.36 1.45 1.44 1.35 1.31 1.20 1.08 1.02 0.93 0.84 0.80 0.74 0.75 0.72 0.67 0.61 0.56 0.51 0.39 0.30 0.33 0.36 0.35 0.31 0.27 0.23 0.18 0.14 0.11 0.09 0.08 0.07 0.05 0.05 0.05 0.04 0.03 0.03 0.03 0.03 0.05 0.09 0.16
1.40 1.50 1.53 1.49 1.41 1.39 1.34 1.22 1.12 1.01 0.87 0.84 0.82 0.77 0.69 0.68 0.67 0.63 0.50 0.42 0.47 0.45 0.38 0.33 0.29 0.27 0.24 0.22 0.20 0.17 0.14 0.12 0.10 0.08 0.07 0.06 0.05 0.05 0.05 0.05 0.06 0.07 0.10
1.56 1.66 1.66 1.64 1.60 1.69 1.70 1.57 1.36 1.20 0.99 0.89 0.86 0.79 0.76 0.74 0.72 0.68 0.61 0.57 0.61 0.58 0.48 0.43 0.37 0.34 0.32 0.32 0.30 0.23 0.18 0.17 0.14 0.11 0.10 0.09 0.09 0.09 0.09 0.09 0.09 0.08 0.08
1.65 1.74 1.75 1.71 1.71 1.74 1.72 1.59 1.39 1.20 1.13 1.02 0.95 0.91 0.88 0.88 0.92 0.84 0.70 0.70 0.73 0.66 0.60 0.57 0.56 0.53 0.47 0.46 0.42 0.30 0.22 0.18 0.15 0.11 0.10 0.10 0.10 0.10 0.10 0.11 0.11 0.10 0.09
1.53 1.77 1.85 1.83 1.85 1.72 1.59 1.63 1.60 1.53 1.39 1.28 1.23 1.13 1.00 0.96 0.98 0.98 0.95 0.92 0.90 0.86 0.83 0.78 0.76 0.70 0.63 0.64 0.58 0.53 0.36 0.24 0.17 0.13 0.13 0.12 0.11 0.12 0.11 0.12 0.12 0.12 0.11
1.31 1.62 1.80 1.91 1.94 1.93 1.87 1.99 1.94 1.82 1.58 1.32 1.15 1.15 1.14 1.11 1.10 1.07 1.08 1.10 1.10 1.06 0.97 0.95 0.95 0.89 0.81 0.79 0.76 0.77 0.56 0.34 0.23 0.18 0.17 0.15 0.15 0.14 0.14 0.14 0.14 0.14 0.13
1.10 1.34 1.54 1.81 2.00 2.07 2.13 2.08 1.96 1.75 1.51 1.27 1.24 1.34 1.37 1.31 1.23 1.19 1.18 1.18 1.18 1.13 1.05 1.09 1.13 1.05 1.03 0.95 0.92 0.84 0.71 0.52 0.44 0.32 0.22 0.22 0.21 0.18 0.18 0.17 0.16 0.15 0.15
1.01 1.20 1.33 1.55 1.86 1.96 1.91 1.89 1.96 1.83 1.61 1.49 1.46 1.43 1.41 1.34 1.27 1.21 1.19 1.20 1.18 1.15 1.09 1.11 1.16 1.18 1.16 1.10 1.02 0.98 0.96 0.83 0.67 0.59 0.43 0.32 0.31 0.28 0.28 0.26 0.23 0.21 0.20
0.85 1.05 1.23 1.32 1.53 1.68 1.67 1.72 1.79 1.71 1.64 1.54 1.41 1.36 1.36 1.32 1.24 1.18 1.16 1.17 1.19 1.18 1.14 1.14 1.19 1.24 1.24 1.17 1.07 0.97 0.95 0.88 0.77 0.75 0.66 0.48 0.42 0.35 0.34 0.33 0.31 0.31 0.32